Flag for United Kingdom

Past Weather in Launceston, England, United Kingdom — Yesterday and Last 2 Weeks

Now
56 °F

Cool.


Feels Like: 51 °F
Forecast: 54 / 40 °F
Wind: 20 mph from Northwest

Location: Plymouth
Current Time: Sep 25, 2020 at 12:20:18 pm
Latest Report: Sep 25, 2020 at 12:00 pm
Visibility: 17 mi
Pressure29.85 "Hg
Humidity: 68%
Dew Point: 45 °F
Location of LauncestonLocation

Past Weather in Launceston — Graph

°F

Launceston Temperature Yesterday

Maximum temperature yesterday: 56 °F (at 4:00 pm)
Minimum temperature yesterday: 49 °F (at 7:00 am)
Average temperature yesterday: 52 °F

High & Low Weather Summary for the Past Weeks

 TemperatureHumidityPressure
High77 °F (Sep 14, 2:00 pm)100% (Sep 13, 6:00 am)30.31 "Hg (Sep 13, 6:00 am)
Low45 °F (Sep 11, 5:00 am)49% (Sep 14, 5:00 pm)29.23 "Hg (Sep 24, 7:00 pm)
Average61 °F80%30.00 "Hg
* Reported Sep 10 11:00 am — Sep 25 11:00 am, Launceston. Weather by CustomWeather, © 2020

Note: Actual official high and low records may vary slightly from our data, if they occured in-between our weather recording intervals... More about our weather records

Launceston Weather History for the Previous 24 Hours

Scroll right to see more
 ConditionsComfort  
Time TempWeatherWind HumidityBarometerVisibility
11:00 am
Fri, Sep 25
53 °FLight rain. Cloudy.23 mph66%29.85 "Hg22 mi
10:00 am54 °FCool.21 mph69%29.81 "Hg17 mi
9:00 am50 °FCool.12 mph87%29.78 "Hg19 mi
8:00 am48 °FCool.15 mph89%29.74 "Hg25 mi
7:00 am48 °FCool.13 mph92%29.69 "Hg19 mi
6:00 am49 °FRain showers. Overcast.13 mph93%29.65 "Hg13 mi
5:00 am49 °FLight rain. Overcast.9 mph94%29.60 "Hg17 mi
4:00 am48 °FRain showers. Overcast.10 mph92%29.58 "Hg7 mi
3:00 am49 °FCool.15 mph83%29.56 "Hg22 mi
2:00 am49 °FCool.9 mph85%29.50 "Hg18 mi
1:00 am50 °FCool.14 mph88%29.47 "Hg19 mi
12:00 am49 °FLight rain. Overcast.18 mph89%29.41 "Hg16 mi
11:00 pm
Thu, Sep 24
50 °FCool.12 mph90%29.32 "Hg17 mi
10:00 pm51 °FCool.15 mph93%29.29 "Hg17 mi
9:00 pm50 °FRain. Overcast.14 mph95%29.29 "Hg11 mi
8:00 pm49 °FLight rain. Overcast.16 mph93%29.26 "Hg12 mi
7:00 pm51 °FLight rain. Cloudy.18 mph91%29.23 "Hg12 mi
6:00 pm50 °FRain. Cloudy.25 mph92%29.26 "Hg1 mi
5:00 pm51 °FLots of rain. Cloudy.26 mph77%29.29 "Hg2 mi
4:00 pm56 °FCool.20 mph65%29.32 "Hg16 mi
3:00 pm54 °FCool.16 mph74%29.35 "Hg19 mi
2:00 pm51 °FLight rain. Cloudy.24 mph75%29.38 "Hg10 mi
1:00 pm55 °FCool.17 mph70%29.38 "Hg16 mi
12:00 pm53 °FCool.18 mph75%29.38 "Hg17 mi
Weather by CustomWeather, © 2020

See weather overview